Location: Ferchesar
(52.6477°N, 12.4298°E)
Time: 04:22:04
(UTC+01:00)

Vanguard 1 Rocket - Pass Details

Date: 10 December 2021
Orbit: 651 x 4224 km, 34.3° (Epoch: 15 January)

Event Time Altitude Azimuth Distance (km) Brightness Sun altitude
Exits shadow 07:16:12 - 267° (W) 5,938 11.0 -7.7°
Rises 07:16:17 0° 267° (W) 5,927 11.0 -7.7°
Reaches altitude 10° 07:21:05 10° 253° (WSW) 5,462 10.9 -7.1°
Maximum altitude 07:32:38 22° 212° (SSW) 5,557 11.4 -5.6°
Drops below altitude 10° 07:47:56 10° 172° (S) 7,307 12.7 -3.6°
Sets 07:56:19 0° 160° (SSE) 8,460 13.4 -2.6°
